"Time","Value","Approval","myLocation"
"2023-05-07 00:00",51.0308785613635,"Working","OW425"
"2023-05-07 01:00",51.0327756089378,"Working","OW425"
"2023-05-07 02:00",51.0341726565121,"Working","OW425"
"2023-05-07 03:00",51.0339697040864,"Working","OW425"
"2023-05-07 04:00",51.0334667516607,"Working","OW425"
"2023-05-07 05:00",51.0327637992351,"Working","OW425"
"2023-05-07 06:00",51.0342608468094,"Working","OW425"
"2023-05-07 07:00",51.0362578943837,"Working","OW425"
"2023-05-07 08:00",51.038754941958,"Working","OW425"
"2023-05-07 09:00",51.0426519895323,"Working","OW425"
"2023-05-07 10:00",51.0476490371066,"Working","OW425"
"2023-05-07 11:00",51.0521460846809,"Working","OW425"
"2023-05-07 12:00",51.0550431322552,"Working","OW425"
"2023-05-07 13:00",51.0564401798296,"Working","OW425"
"2023-05-07 14:00",51.0589372274039,"Working","OW425"
"2023-05-07 15:00",51.0592342749782,"Working","OW425"
"2023-05-07 16:00",51.0568313225525,"Working","OW425"
"2023-05-07 17:00",51.0546283701268,"Working","OW425"
"2023-05-07 18:00",51.0518254177011,"Working","OW425"
"2023-05-07 19:00",51.0500224652754,"Working","OW425"
"2023-05-07 20:00",51.0494195128498,"Working","OW425"
"2023-05-07 21:00",51.0498165604241,"Working","OW425"
"2023-05-07 22:00",51.0502136079984,"Working","OW425"
"2023-05-07 23:00",51.0519106555727,"Working","OW425"
"2023-05-08 00:00",51.051407703147,"Working","OW425"
"2023-05-08 01:00",51.0524047507213,"Working","OW425"
"2023-05-08 02:00",51.0530017982956,"Working","OW425"
"2023-05-08 03:00",51.05219884587,"Working","OW425"
"2023-05-08 04:00",51.0504958934443,"Working","OW425"
"2023-05-08 05:00",51.0497929410186,"Working","OW425"
"2023-05-08 06:00",51.0490899885929,"Working","OW425"
"2023-05-08 07:00",51.0490870361672,"Working","OW425"
"2023-05-08 08:00",51.0492840837415,"Working","OW425"
"2023-05-08 09:00",51.0504811313158,"Working","OW425"
"2023-05-08 10:00",51.0543781788902,"Working","OW425"
"2023-05-08 11:00",51.0571752264645,"Working","OW425"
"2023-05-08 12:00",51.0595722740388,"Working","OW425"
"2023-05-08 13:00",51.0617693216131,"Working","OW425"
"2023-05-08 14:00",51.0627663691874,"Working","OW425"
"2023-05-08 15:00",51.0616634167617,"Working","OW425"
"2023-05-08 16:00",51.059660464336,"Working","OW425"
"2023-05-08 17:00",51.0585575119104,"Working","OW425"
"2023-05-08 18:00",51.0558545594847,"Working","OW425"
"2023-05-08 19:00",51.054551607059,"Working","OW425"
"2023-05-08 20:00",51.0529486546333,"Working","OW425"
"2023-05-08 21:00",51.0529457022076,"Working","OW425"
"2023-05-08 22:00",51.0524427497819,"Working","OW425"
"2023-05-08 23:00",51.0537397973562,"Working","OW425"
"2023-05-09 00:00",51.0549368449305,"Working","OW425"
"2023-05-09 01:00",51.0559338925049,"Working","OW425"
"2023-05-09 02:00",51.0578309400792,"Working","OW425"
"2023-05-09 03:00",51.0586279876535,"Working","OW425"
"2023-05-09 04:00",51.0583250352278,"Working","OW425"
"2023-05-09 05:00",51.0581220828021,"Working","OW425"
"2023-05-09 06:00",51.0577191303764,"Working","OW425"
"2023-05-09 07:00",51.0597161779507,"Working","OW425"
"2023-05-09 08:00",51.0593132255251,"Working","OW425"
"2023-05-09 09:00",51.0602102730994,"Working","OW425"
"2023-05-09 10:00",51.0626073206737,"Working","OW425"
"2023-05-09 11:00",51.066404368248,"Working","OW425"
"2023-05-09 12:00",51.0679014158223,"Working","OW425"
"2023-05-09 13:00",51.0704984633966,"Working","OW425"
"2023-05-09 14:00",51.0712955109709,"Working","OW425"
"2023-05-09 15:00",51.0713925585453,"Working","OW425"
"2023-05-09 16:00",51.0704896061196,"Working","OW425"
"2023-05-09 17:00",51.0687866536939,"Working","OW425"
"2023-05-09 18:00",51.0667837012682,"Working","OW425"
"2023-05-09 19:00",51.0651807488425,"Working","OW425"
"2023-05-09 20:00",51.0633777964168,"Working","OW425"
"2023-05-09 21:00",51.0628748439911,"Working","OW425"
"2023-05-09 22:00",51.0594718915655,"Working","OW425"
"2023-05-09 23:00",51.0583689391398,"Working","OW425"
"2023-05-10 00:00",51.0585659867141,"Working","OW425"
"2023-05-10 01:00",51.0578630342884,"Working","OW425"
"2023-05-10 02:00",51.0575600818627,"Working","OW425"
"2023-05-10 03:00",51.058057129437,"Working","OW425"
"2023-05-10 04:00",51.0562541770113,"Working","OW425"
"2023-05-10 05:00",51.0545512245857,"Working","OW425"
"2023-05-10 06:00",51.05324827216,"Working","OW425"
"2023-05-10 07:00",51.0529453197343,"Working","OW425"
"2023-05-10 08:00",51.0526423673086,"Working","OW425"
"2023-05-10 09:00",51.0521394148829,"Working","OW425"
"2023-05-10 10:00",51.0541364624572,"Working","OW425"
"2023-05-10 11:00",51.0548335100315,"Working","OW425"
"2023-05-10 12:00",51.0560305576059,"Working","OW425"
"2023-05-10 13:00",51.0571276051802,"Working","OW425"
"2023-05-10 14:00",51.0584246527545,"Working","OW425"
"2023-05-10 15:00",51.0583217003288,"Working","OW425"
"2023-05-10 16:00",51.0587187479031,"Working","OW425"
"2023-05-10 17:00",51.0568157954774,"Working","OW425"
"2023-05-10 18:00",51.0556128430517,"Working","OW425"
"2023-05-10 19:00",51.0554098906261,"Working","OW425"
"2023-05-10 20:00",51.0545069382004,"Working","OW425"
"2023-05-10 21:00",51.0543039857747,"Working","OW425"
"2023-05-10 22:00",51.052701033349,"Working","OW425"
"2023-05-10 23:00",51.0511980809233,"Working","OW425"
"2023-05-11 00:00",51.0498951284976,"Working","OW425"
"2023-05-11 01:00",51.0512921760719,"Working","OW425"
"2023-05-11 02:00",51.0501892236462,"Working","OW425"
"2023-05-11 03:00",51.0523862712206,"Working","OW425"
"2023-05-11 04:00",51.0516833187949,"Working","OW425"
"2023-05-11 05:00",51.0522803663692,"Working","OW425"
"2023-05-11 06:00",51.0526774139435,"Working","OW425"
"2023-05-11 07:00",51.0540744615178,"Working","OW425"
"2023-05-11 08:00",51.0542715090921,"Working","OW425"
"2023-05-11 09:00",51.0547685566664,"Working","OW425"
"2023-05-11 10:00",51.0554656042408,"Working","OW425"
"2023-05-11 11:00",51.0564626518151,"Working","OW425"
"2023-05-11 12:00",51.0571596993894,"Working","OW425"
"2023-05-11 13:00",51.0587567469637,"Working","OW425"
"2023-05-11 14:00",51.059653794538,"Working","OW425"
"2023-05-11 15:00",51.0596508421123,"Working","OW425"
"2023-05-11 16:00",51.0604478896866,"Working","OW425"
"2023-05-11 17:00",51.061144937261,"Working","OW425"
"2023-05-11 18:00",51.0614419848353,"Working","OW425"
"2023-05-11 19:00",51.0612390324096,"Working","OW425"
"2023-05-11 20:00",51.0601360799839,"Working","OW425"
"2023-05-11 21:00",51.0593331275582,"Working","OW425"
"2023-05-11 22:00",51.0581301751325,"Working","OW425"
"2023-05-11 23:00",51.0561272227068,"Working","OW425"
"2023-05-12 00:00",51.0557242702812,"Working","OW425"
"2023-05-12 01:00",51.0550213178555,"Working","OW425"
"2023-05-12 02:00",51.0554183654298,"Working","OW425"
"2023-05-12 03:00",51.0559154130041,"Working","OW425"
"2023-05-12 04:00",51.0576124605784,"Working","OW425"
"2023-05-12 05:00",51.0587095081527,"Working","OW425"
"2023-05-12 06:00",51.060306555727,"Working","OW425"
"2023-05-12 07:00",51.0626036033014,"Working","OW425"
"2023-05-12 08:00",51.0643006508757,"Working","OW425"
"2023-05-12 09:00",51.06579769845,"Working","OW425"
"2023-05-12 10:00",51.0670947460243,"Working","OW425"
"2023-05-12 11:00",51.0676917935986,"Working","OW425"
"2023-05-12 12:00",51.0687888411729,"Working","OW425"
"2023-05-12 13:00",51.0708858887472,"Working","OW425"
"2023-05-12 14:00",51.0734829363215,"Working","OW425"
"2023-05-12 15:00",51.0748799838959,"Working","OW425"
"2023-05-12 16:00",51.0775770314702,"Working","OW425"
"2023-05-12 17:00",51.0799740790445,"Working","OW425"
"2023-05-12 18:00",51.0832711266188,"Working","OW425"
"2023-05-12 19:00",51.0859681741931,"Working","OW425"
"2023-05-12 20:00",51.0886652217674,"Working","OW425"
"2023-05-12 21:00",51.0915622693417,"Working","OW425"
"2023-05-12 22:00",51.0937593169161,"Working","OW425"
"2023-05-12 23:00",51.0963563644904,"Working","OW425"
"2023-05-13 00:00",51.0984534120647,"Working","OW425"
"2023-05-13 01:00",51.101950459639,"Working","OW425"
"2023-05-13 02:00",51.1041475072133,"Working","OW425"
"2023-05-13 03:00",51.1074445547876,"Working","OW425"
"2023-05-13 04:00",51.1128416023619,"Working","OW425"
"2023-05-13 05:00",51.1177386499363,"Working","OW425"
"2023-05-13 06:00",51.1224356975106,"Working","OW425"
"2023-05-13 07:00",51.1278327450849,"Working","OW425"
"2023-05-13 08:00",51.1326297926592,"Working","OW425"
"2023-05-13 09:00",51.1370268402335,"Working","OW425"
"2023-05-13 10:00",51.1399238878078,"Working","OW425"
"2023-05-13 11:00",51.1431209353821,"Working","OW425"
"2023-05-13 12:00",51.1449179829565,"Working","OW425"
"2023-05-13 13:00",51.1472150305308,"Working","OW425"
"2023-05-13 14:00",51.1482120781051,"Working","OW425"
"2023-05-13 15:00",51.1492091256794,"Working","OW425"
"2023-05-13 16:00",51.1513061732537,"Working","OW425"
"2023-05-13 17:00",51.153403220828,"Working","OW425"
"2023-05-13 18:00",51.1570002684023,"Working","OW425"
"2023-05-13 19:00",51.1598973159767,"Working","OW425"
"2023-05-13 20:00",51.162394363551,"Working","OW425"
"2023-05-13 21:00",51.1645914111253,"Working","OW425"
"2023-05-13 22:00",51.1654884586996,"Working","OW425"
"2023-05-13 23:00",51.1651855062739,"Working","OW425"
"2023-05-14 00:00",51.1661825538482,"Working","OW425"
"2023-05-14 01:00",51.1666796014225,"Working","OW425"
"2023-05-14 02:00",51.1669766489968,"Working","OW425"
"2023-05-14 03:00",51.1670736965712,"Working","OW425"
"2023-05-14 04:00",51.1695707441455,"Working","OW425"
"2023-05-14 05:00",51.1709677917198,"Working","OW425"
"2023-05-14 06:00",51.1739648392941,"Working","OW425"
"2023-05-14 07:00",51.1761618868684,"Working","OW425"
"2023-05-14 08:00",51.1793589344427,"Working","OW425"
"2023-05-14 09:00",51.181255982017,"Working","OW425"
"2023-05-14 10:00",51.1825530295914,"Working","OW425"
"2023-05-14 11:00",51.1825500771657,"Working","OW425"
"2023-05-14 12:00",51.18164712474,"Working","OW425"
"2023-05-14 13:00",51.1803441723143,"Working","OW425"
"2023-05-14 14:00",51.1802412198886,"Working","OW425"
"2023-05-14 15:00",51.1797382674629,"Working","OW425"
"2023-05-14 16:00",51.1806353150372,"Working","OW425"
"2023-05-14 17:00",51.1832323626116,"Working","OW425"
"2023-05-14 18:00",51.1864294101859,"Working","OW425"
"2023-05-14 19:00",51.1900264577602,"Working","OW425"
"2023-05-14 20:00",51.1945235053345,"Working","OW425"
"2023-05-14 21:00",51.1989205529088,"Working","OW425"
"2023-05-14 22:00",51.2016176004831,"Working","OW425"
"2023-05-14 23:00",51.2044146480574,"Working","OW425"
"2023-05-15 00:00",51.2063116956317,"Working","OW425"
"2023-05-15 01:00",51.2088087432061,"Working","OW425"
"2023-05-15 02:00",51.2104057907804,"Working","OW425"
"2023-05-15 03:00",51.2122028383547,"Working","OW425"
"2023-05-15 04:00",51.215199885929,"Working","OW425"
"2023-05-15 05:00",51.2193969335033,"Working","OW425"
"2023-05-15 06:00",51.2241939810776,"Working","OW425"
"2023-05-15 07:00",51.2294910286519,"Working","OW425"
"2023-05-15 08:00",51.2346880762263,"Working","OW425"
"2023-05-15 09:00",51.2392851238006,"Working","OW425"
"2023-05-15 10:00",51.2445821713749,"Working","OW425"
"2023-05-15 11:00",51.2468792189492,"Working","OW425"
"2023-05-15 12:00",51.2496762665235,"Working","OW425"
"2023-05-15 13:00",51.2509733140978,"Working","OW425"
"2023-05-15 14:00",51.2509703616721,"Working","OW425"
"2023-05-15 15:00",51.2525674092465,"Working","OW425"
"2023-05-15 16:00",51.2533644568208,"Working","OW425"
"2023-05-15 17:00",51.2572615043951,"Working","OW425"
"2023-05-15 18:00",51.2611585519694,"Working","OW425"
"2023-05-15 19:00",51.2669555995437,"Working","OW425"
"2023-05-15 20:00",51.273152647118,"Working","OW425"
"2023-05-15 21:00",51.2808496946923,"Working","OW425"
"2023-05-15 22:00",51.2864467422667,"Working","OW425"
"2023-05-15 23:00",51.292043789841,"Working","OW425"
"2023-05-16 00:00",51.2975408374153,"Working","OW425"
"2023-05-16 01:00",51.3020378849896,"Working","OW425"
"2023-05-16 02:00",51.3061349325639,"Working","OW425"
"2023-05-16 03:00",51.3104319801382,"Working","OW425"
"2023-05-16 04:00",51.3160290277125,"Working","OW425"
"2023-05-16 05:00",51.3204260752869,"Working","OW425"
"2023-05-16 06:00",51.3284231228612,"Working","OW425"
"2023-05-16 07:00",51.3354201704355,"Working","OW425"
"2023-05-16 08:00",51.3434172180098,"Working","OW425"
"2023-05-16 09:00",51.3503142655841,"Working","OW425"
"2023-05-16 10:00",51.3564113131584,"Working","OW425"
"2023-05-16 11:00",51.3611083607327,"Working","OW425"
"2023-05-16 12:00",51.3627054083071,"Working","OW425"
"2023-05-16 13:00",51.3642024558814,"Working","OW425"
"2023-05-16 14:00",51.3638995034557,"Working","OW425"
"2023-05-16 15:00",51.36309655103,"Working","OW425"
"2023-05-16 16:00",51.3623935986043,"Working","OW425"
"2023-05-16 17:00",51.3632906461786,"Working","OW425"
"2023-05-16 18:00",51.3662876937529,"Working","OW425"
"2023-05-16 19:00",51.3702847413273,"Working","OW425"
"2023-05-16 20:00",51.3762817889016,"Working","OW425"
"2023-05-16 21:00",51.3827788364759,"Working","OW425"
"2023-05-16 22:00",51.3894758840502,"Working","OW425"
"2023-05-16 23:00",51.3937729316245,"Working","OW425"
"2023-05-17 00:00",51.3944699791988,"Working","OW425"
"2023-05-17 01:00",51.3975670267731,"Working","OW425"
"2023-05-17 02:00",51.3983640743474,"Working","OW425"
"2023-05-17 03:00",51.4007611219218,"Working","OW425"
"2023-05-17 04:00",51.4030581694961,"Working","OW425"
"2023-05-17 05:00",51.4054552170704,"Working","OW425"
"2023-05-17 06:00",51.4103522646447,"Working","OW425"
"2023-05-17 07:00",51.415449312219,"Working","OW425"
"2023-05-17 08:00",51.4206463597933,"Working","OW425"
"2023-05-17 09:00",51.4258434073676,"Working","OW425"
"2023-05-17 10:00",51.430340454942,"Working","OW425"
"2023-05-17 11:00",51.4339375025163,"Working","OW425"
"2023-05-17 12:00",51.4342345500906,"Working","OW425"
"2023-05-17 13:00",51.4342315976649,"Working","OW425"
"2023-05-17 14:00",51.4328286452392,"Working","OW425"
"2023-05-17 15:00",51.4296256928135,"Working","OW425"
"2023-05-17 16:00",51.4277227403878,"Working","OW425"
"2023-05-17 17:00",51.4253197879622,"Working","OW425"
"2023-05-17 18:00",51.4263168355365,"Working","OW425"
"2023-05-17 19:00",51.4287138831108,"Working","OW425"
"2023-05-17 20:00",51.4323109306851,"Working","OW425"
"2023-05-17 21:00",51.4369079782594,"Working","OW425"
"2023-05-17 22:00",51.4408050258337,"Working","OW425"
"2023-05-17 23:00",51.444202073408,"Working","OW425"
"2023-05-18 00:00",51.4461991209824,"Working","OW425"
"2023-05-18 01:00",51.4474961685567,"Working","OW425"
"2023-05-18 02:00",51.447693216131,"Working","OW425"
"2023-05-18 03:00",51.4477902637053,"Working","OW425"
"2023-05-18 04:00",51.4487873112796,"Working","OW425"
"2023-05-18 05:00",51.4496843588539,"Working","OW425"
"2023-05-18 06:00",51.4525814064282,"Working","OW425"
"2023-05-18 07:00",51.4568784540026,"Working","OW425"
"2023-05-18 08:00",51.4622755015769,"Working","OW425"
"2023-05-18 09:00",51.4679725491512,"Working","OW425"
"2023-05-18 10:00",51.4725695967255,"Working","OW425"
"2023-05-18 11:00",51.4757666442998,"Working","OW425"
"2023-05-18 12:00",51.4778636918741,"Working","OW425"
"2023-05-18 13:00",51.4804607394484,"Working","OW425"
"2023-05-18 14:00",51.4789577870227,"Working","OW425"
"2023-05-18 15:00",51.4777548345971,"Working","OW425"
"2023-05-18 16:00",51.4758518821714,"Working","OW425"
"2023-05-18 17:00",51.4733489297457,"Working","OW425"
"2023-05-18 18:00",51.47334597732,"Working","OW425"
"2023-05-18 19:00",51.4741430248943,"Working","OW425"
"2023-05-18 20:00",51.4767400724686,"Working","OW425"
"2023-05-18 21:00",51.4794371200429,"Working","OW425"
"2023-05-18 22:00",51.4820341676173,"Working","OW425"
"2023-05-18 23:00",51.4856312151916,"Working","OW425"
"2023-05-19 00:00",51.4880282627659,"Working","OW425"
"2023-05-19 01:00",51.4894253103402,"Working","OW425"
"2023-05-19 02:00",51.4895223579145,"Working","OW425"
"2023-05-19 03:00",51.4881194054888,"Working","OW425"
"2023-05-19 04:00",51.4873164530631,"Working","OW425"
"2023-05-19 05:00",51.4876135006375,"Working","OW425"
"2023-05-19 06:00",51.4903105482118,"Working","OW425"
"2023-05-19 07:00",51.4929075957861,"Working","OW425"
"2023-05-19 08:00",51.4966046433604,"Working","OW425"
"2023-05-19 09:00",51.5003016909347,"Working","OW425"
"2023-05-19 10:00",51.504798738509,"Working","OW425"
"2023-05-19 11:00",51.5064957860833,"Working","OW425"
"2023-05-19 12:00",51.5074928336577,"Working","OW425"
"2023-05-19 13:00",51.506789881232,"Working","OW425"
"2023-05-19 14:00",51.5042869288063,"Working","OW425"
"2023-05-19 15:00",51.5011839763806,"Working","OW425"
"2023-05-19 16:00",51.4962810239549,"Working","OW425"
"2023-05-19 17:00",51.4923780715292,"Working","OW425"
"2023-05-19 18:00",51.4886751191035,"Working","OW425"
"2023-05-19 19:00",51.4874721666778,"Working","OW425"
"2023-05-19 20:00",51.4882692142522,"Working","OW425"
"2023-05-19 21:00",51.4914662618265,"Working","OW425"
"2023-05-19 22:00",51.4940633094008,"Working","OW425"
"2023-05-19 23:00",51.4988603569751,"Working","OW425"
"2023-05-20 00:00",51.5008574045494,"Working","OW425"
"2023-05-20 01:00",51.5028544521237,"Working","OW425"
"2023-05-20 02:00",51.503951499698,"Working","OW425"
"2023-05-20 03:00",51.5038485472724,"Working","OW425"
"2023-05-20 04:00",51.5049455948467,"Working","OW425"
"2023-05-20 05:00",51.507042642421,"Working","OW425"
"2023-05-20 06:00",51.5091396899953,"Working","OW425"
"2023-05-20 07:00",51.5135367375696,"Working","OW425"
"2023-05-20 08:00",51.5179337851439,"Working","OW425"
"2023-05-20 09:00",51.5226308327182,"Working","OW425"
"2023-05-20 10:00",51.5283278802926,"Working","OW425"
"2023-05-20 11:00",51.5331249278669,"Working","OW425"
"2023-05-20 12:00",51.5354219754412,"Working","OW425"
"2023-05-20 13:00",51.5373190230155,"Working","OW425"
"2023-05-20 14:00",51.5376160705898,"Working","OW425"
"2023-05-20 15:00",51.5355131181641,"Working","OW425"
"2023-05-20 16:00",51.5327101657384,"Working","OW425"
"2023-05-20 17:00",51.5302072133128,"Working","OW425"
"2023-05-20 18:00",51.5275042608871,"Working","OW425"
"2023-05-20 19:00",51.5286013084614,"Working","OW425"
"2023-05-20 20:00",51.5292983560357,"Working","OW425"
"2023-05-20 21:00",51.53349540361,"Working","OW425"
"2023-05-20 22:00",51.5352924511843,"Working","OW425"
"2023-05-20 23:00",51.5380894987586,"Working","OW425"
"2023-05-21 00:00",51.540986546333,"Working","OW425"
"2023-05-21 01:00",51.5417835939073,"Working","OW425"
"2023-05-21 02:00",51.5420806414816,"Working","OW425"
"2023-05-21 03:00",51.5413776890559,"Working","OW425"
"2023-05-21 04:00",51.5409747366302,"Working","OW425"
"2023-05-21 05:00",51.5403717842045,"Working","OW425"
"2023-05-21 06:00",51.5412688317788,"Working","OW425"
"2023-05-21 07:00",51.5439658793532,"Working","OW425"
"2023-05-21 08:00",51.5458629269275,"Working","OW425"
"2023-05-21 09:00",51.5498599745018,"Working","OW425"
"2023-05-21 10:00",51.5521570220761,"Working","OW425"
"2023-05-21 11:00",51.5543540696504,"Working","OW425"
"2023-05-21 12:00",51.5576511172247,"Working","OW425"
"2023-05-21 13:00",51.558848164799,"Working","OW425"
"2023-05-21 14:00",51.5601452123733,"Working","OW425"
"2023-05-21 15:00",51.5588422599477,"Working","OW425"
"2023-05-21 16:00",51.557639307522,"Working","OW425"
"2023-05-21 17:00",51.5559363550963,"Working","OW425"
"2023-05-21 18:00",51.5541334026706,"Working","OW425"
"2023-05-21 19:00",51.5540304502449,"Working","OW425"
"2023-05-21 20:00",51.5542274978192,"Working","OW425"
"2023-05-21 21:00",51.5552245453935,"Working","OW425"
"2023-05-21 22:00",51.5562215929679,"Working","OW425"
"2023-05-21 23:00",51.5575186405422,"Working","OW425"
"2023-05-22 00:00",51.5599156881165,"Working","OW425"
"2023-05-22 01:00",51.5617127356908,"Working","OW425"
"2023-05-22 02:00",51.5631097832651,"Working","OW425"
"2023-05-22 03:00",51.5643068308394,"Working","OW425"
"2023-05-22 04:00",51.5651038784137,"Working","OW425"
"2023-05-22 05:00",51.5656009259881,"Working","OW425"
"2023-05-22 06:00",51.5677979735624,"Working","OW425"
"2023-05-22 07:00",51.5691950211367,"Working","OW425"
"2023-05-22 08:00",51.571792068711,"Working","OW425"
"2023-05-22 09:00",51.5757891162853,"Working","OW425"
"2023-05-22 10:00",51.5804861638596,"Working","OW425"
"2023-05-22 11:00",51.5858832114339,"Working","OW425"
"2023-05-22 12:00",51.5916802590082,"Working","OW425"
"2023-05-22 13:00",51.5955773065826,"Working","OW425"
"2023-05-22 14:00",51.5993743541569,"Working","OW425"
"2023-05-22 15:00",51.6006714017312,"Working","OW425"
"2023-05-22 16:00",51.6002684493055,"Working","OW425"
"2023-05-22 17:00",51.6028654968798,"Working","OW425"
"2023-05-22 18:00",51.6034625444541,"Working","OW425"
"2023-05-22 19:00",51.6043595920285,"Working","OW425"
"2023-05-22 20:00",51.6058566396028,"Working","OW425"
"2023-05-22 21:00",51.6086536871771,"Working","OW425"
"2023-05-22 22:00",51.6117507347514,"Working","OW425"
"2023-05-22 23:00",51.6157477823257,"Working","OW425"
"2023-05-23 00:00",51.6169448299,"Working","OW425"
"2023-05-23 01:00",51.6210418774743,"Working","OW425"
"2023-05-23 02:00",51.6232389250487,"Working","OW425"
"2023-05-23 03:00",51.625635972623,"Working","OW425"
"2023-05-23 04:00",51.6285330201973,"Working","OW425"
"2023-05-23 05:00",51.6306300677716,"Working","OW425"
"2023-05-23 06:00",51.6324271153459,"Working","OW425"
"2023-05-23 07:00",51.6341241629202,"Working","OW425"
"2023-05-23 08:00",51.6384212104945,"Working","OW425"
"2023-05-23 09:00",51.6428182580688,"Working","OW425"
"2023-05-23 10:00",51.6462153056432,"Working","OW425"
"2023-05-23 11:00",51.6517123532175,"Working","OW425"
"2023-05-23 12:00",51.6569094007918,"Working","OW425"
"2023-05-23 13:00",51.6625064483661,"Working","OW425"
"2023-05-23 14:00",51.6665034959404,"Working","OW425"
"2023-05-23 15:00",51.6681005435147,"Working","OW425"
"2023-05-23 16:00",51.671397591089,"Working","OW425"
"2023-05-23 17:00",51.6729946386634,"Working","OW425"
"2023-05-23 18:00",51.6731916862377,"Working","OW425"
"2023-05-23 19:00",51.674788733812,"Working","OW425"
"2023-05-23 20:00",51.6768857813863,"Working","OW425"
"2023-05-23 21:00",51.6790828289606,"Working","OW425"
"2023-05-23 22:00",51.6814798765349,"Working","OW425"
"2023-05-23 23:00",51.6837769241092,"Working","OW425"
"2023-05-24 00:00",51.6870739716836,"Working","OW425"
"2023-05-24 01:00",51.6908710192579,"Working","OW425"
"2023-05-24 02:00",51.6932680668322,"Working","OW425"
"2023-05-24 03:00",51.6961651144065,"Working","OW425"
"2023-05-24 04:00",51.6988621619808,"Working","OW425"
"2023-05-24 05:00",51.7015592095551,"Working","OW425"
"2023-05-24 06:00",51.7040562571294,"Working","OW425"
"2023-05-24 07:00",51.7061533047038,"Working","OW425"
"2023-05-24 08:00",51.7085503522781,"Working","OW425"
"2023-05-24 09:00",51.7108473998524,"Working","OW425"
"2023-05-24 10:00",51.7151444474267,"Working","OW425"
"2023-05-24 11:00",51.719641495001,"Working","OW425"
"2023-05-24 12:00",51.7233385425753,"Working","OW425"
"2023-05-24 13:00",51.7259355901496,"Working","OW425"
"2023-05-24 14:00",51.7299326377239,"Working","OW425"
"2023-05-24 15:00",51.7337296852983,"Working","OW425"
"2023-05-24 16:00",51.7329267328726,"Working","OW425"
"2023-05-24 17:00",51.7336237804469,"Working","OW425"
"2023-05-24 18:00",51.7337208280212,"Working","OW425"
"2023-05-24 19:00",51.7349178755955,"Working","OW425"
"2023-05-24 20:00",51.7368149231698,"Working","OW425"
"2023-05-24 21:00",51.7400119707441,"Working","OW425"
"2023-05-24 22:00",51.7422090183185,"Working","OW425"
"2023-05-24 23:00",51.7437060658928,"Working","OW425"
"2023-05-25 00:00",51.7459031134671,"Working","OW425"
"2023-05-25 01:00",51.7478001610414,"Working","OW425"
"2023-05-25 02:00",51.7507972086157,"Working","OW425"
"2023-05-25 03:00",51.75269425619,"Working","OW425"